Вернуться в каталог

CZ-8 R/B

АктивенPO
NORAD 69122·ROCKET BODY·🇨🇳 China

Запущен May 17, 2026 с Wenchang Space Launch Site

Loading…

Ближайшие Пролёты (ближайшие 24 часа)

TLE

СвежийSource: Space-Track

Эпоха: Sep 14, 2026, 20:52 UTC

1 69122U 26108U   26257.86955012  .00000194  00000-0  55724-4 0  9996
2 69122  89.0188  11.7274 0069149  78.5319 282.3637 14.39222385 17301

Отслеживайте CZ-8 R/B в реальном времени с AllMySat

Download on the App Store